Wind_Speed
28 30 32 33 34 33 31 30 24 19 15 13 12 10 13 12 10 10 11 12 12 17 13 16 12 16 23 13 14 8 2 4 8 9 4 2 1 3 5 8 11 14 17
28 30 32 33 32 28 19 13 14 12 9 7 5 4 4 4 5 8 9 9 11 13 12 12 14 18 10 8 1 4 9 13 9 5 4 4 5 6 7 8 7 8 10
29 32 32 27 18 13 13 13 12 12 10 8 7 4 2 3 3 5 5 6 12 14 13 13 13 5 4 3 8 13 12 9 8 8 7 8 7 5 5 3 6 8 9
28 28 25 18 16 15 15 15 14 14 13 11 10 10 10 9 8 7 7 9 9 10 6 2 4 4 8 11 15 12 11 13 11 10 11 10 9 8 7 8 8 7 8
26 23 25 24 24 25 26 27 27 25 24 21 19 18 17 17 16 16 16 16 14 13 12 11 12 14 17 15 12 12 14 13 12 13 12 11 11 11 11 8 5 5 7
29 30 27 28 29 30 31 32 33 33 32 30 29 28 27 26 24 23 22 22 21 21 21 21 20 16 14 12 14 15 17 15 12 12 13 15 13 12 12 12 11 11 11
27 29 33 34 35 36 35 35 34 34 34 34 33 33 33 32 31 31 29 28 27 24 22 19 17 19 20 18 19 18 15 15 15 15 16 17 17 17 17 16 15 15 14
23 25 27 28 29 30 31 31 30 30 30 30 28 28 27 27 27 26 25 24 24 24 25 24 23 22 22 21 21 19 18 20 19 20 19 19 19 19 19 18 18 18 18
21 21 22 22 24 26 28 29 30 29 29 29 28 28 28 28 29 29 29 29 28 26 25 24 25 24 23 23 23 23 23 23 24 24 24 23 23 22 21 21 21 20 19
19 19 21 23 23 25 26 26 26 26 25 27 29 30 29 28 29 29 29 30 29 28 27 27 27 28 27 27 28 29 27 26 25 23 22 22 21 20 19 19 18 18 18
16 19 21 22 23 23 23 23 24 26 28 30 31 30 30 30 31 31 31 32 32 32 32 31 31 32 31 29 28 26 25 24 22 21 20 19 18 18 18 18 17 17 16
17 18 19 20 23 23 24 26 26 25 26 26 29 30 31 33 34 35 35 35 35 36 35 34 32 30 28 26 26 24 24 23 21 21 20 19 19 19 19 18 18 17 17
14 15 18 19 22 22 23 22 23 24 28 30 31 32 33 34 36 37 37 36 35 33 32 31 29 28 28 27 26 25 24 22 22 21 21 20 20 20 20 19 19 19 20
13 16 17 19 17 17 18 22 24 26 29 31 32 33 34 34 33 33 33 33 33 33 32 31 29 28 27 27 26 25 24 24 24 24 24 24 24 23 23 24 24 24 25
13 14 14 14 17 20 20 22 25 27 28 30 30 31 31 31 31 32 32 33 32 31 30 30 30 30 29 29 29 29 29 29 30 30 29 29 28 27 26 26 27 28 28
10 10 13 15 18 21 21 24 25 27 27 28 28 28 28 29 29 29 30 30 30 29 29 32 32 33 33 33 33 33 34 34 33 34 37 36 32 31 30 29 29 30 31
9 9 15 17 19 21 22 24 25 25 25 26 26 26 26 26 26 27 27 28 28 30 32 33 32 32 31 31 31 31 30 30 30 31 32 35 37 36 32 30 29 31 34
9 12 16 18 19 20 24 24 24 23 23 23 23 23 24 24 24 25 28 29 29 28 28 27 27 27 28 28 29 30 31 31 32 32 34 32 34 38 36 33 33 35 38
10 15 17 18 21 22 23 22 22 22 21 21 21 21 23 24 25 26 25 23 24 24 23 24 24 25 26 28 29 30 31 32 33 34 34 34 33 36 37 37 39 40 41
13 15 16 19 21 21 21 20 20 20 20 20 21 23 24 23 19 19 20 20 20 20 20 21 21 23 25 27 30 32 34 33 33 33 35 34 34 37 38 41 42 41 40
13 14 16 20 21 20 19 18 18 19 19 21 22 21 18 16 16 16 16 16 17 17 17 18 20 23 26 29 31 33 34 34 33 34 34 35 37 38 39 42 42 42 40
12 12 16 19 21 20 18 17 18 18 19 18 17 14 12 11 11 10 11 12 13 13 15 17 20 22 25 29 32 35 36 35 34 35 36 35 36 39 41 44 46 42 38
11 12 15 18 20 20 18 16 16 16 15 13 10 8 6 6 5 6 6 7 9 11 14 17 20 23 26 29 33 35 36 35 35 35 35 37 37 41 43 45 46 42 38
12 13 15 17 19 19 18 16 15 13 11 9 8 6 4 5 4 4 4 6 8 11 14 17 20 23 27 30 33 36 37 35 36 36 36 37 39 42 45 47 46 41 38
12 14 14 16 18 18 18 17 15 13 11 9 6 3 0 3 4 4 5 7 10 12 15 19 22 25 28 31 34 36 38 37 37 37 38 39 41 43 45 46 45 40 37
14 16 16 16 17 17 16 16 16 15 13 10 8 6 6 6 6 7 8 9 12 15 18 21 23 26 30 33 36 38 39 37 37 38 40 41 42 43 45 45 41 39 35
Wind_Direction
321 320 318 314 310 307 308 310 307 310 308 303 294 280 264 255 252 249 249 253 238 222 256 221 263 309 318 320 317 311 307 129 107 82 101 124 229 277 294 298 296 292 292
332 329 323 318 315 318 324 332 338 342 337 332 334 319 280 257 233 238 245 243 214 215 212 241 287 311 325 328 332 109 102 85 82 78 67 31 355 333 321 309 301 300 299
339 334 333 338 350 1 9 8 17 32 41 48 34 38 83 141 166 189 192 187 198 210 232 263 291 321 343 89 111 104 91 89 67 47 36 38 35 34 17 354 324 323 317
344 352 360 12 22 32 39 42 51 58 57 56 56 80 98 106 118 138 144 140 158 184 208 229 111 98 107 110 108 97 91 71 50 60 54 42 32 18 356 334 326 324 321
10 22 39 50 58 64 66 68 69 69 70 72 75 81 86 91 95 95 94 96 98 101 106 111 109 106 107 104 97 92 72 70 64 54 39 27 20 22 25 17 1 350 350
47 49 56 62 66 69 70 70 70 71 72 73 75 78 82 82 82 83 87 91 96 100 102 103 102 94 90 90 96 81 78 67 55 46 38 44 39 37 37 38 31 24 18
54 57 63 67 69 71 71 70 72 73 74 74 76 79 82 84 87 89 90 91 93 93 91 89 89 92 92 85 82 74 64 66 59 54 55 54 53 53 54 54 55 54 48
54 55 58 61 64 65 66 68 71 73 73 74 75 77 78 80 83 84 85 87 89 90 91 91 89 86 84 82 80 77 72 75 72 69 64 61 61 58 55 55 53 51 48
49 50 55 58 61 63 67 70 72 73 75 75 76 79 80 83 85 86 88 89 90 89 88 88 87 85 83 83 83 82 79 77 76 73 70 68 66 64 62 61 58 55 54
48 53 60 64 65 72 74 73 73 75 74 78 80 81 82 86 86 87 89 91 89 88 87 87 87 86 85 85 84 82 79 75 72 70 66 62 59 55 52 48 46 42 40
54 69 68 67 69 69 69 70 74 78 80 80 78 79 81 86 89 91 91 92 91 90 88 87 87 84 81 79 78 76 73 69 65 62 58 55 50 46 41 37 33 28 25
75 74 66 71 72 73 75 80 80 79 81 82 85 88 90 92 91 92 91 90 89 86 84 82 81 81 80 78 75 71 68 63 61 55 53 48 44 40 37 32 27 23 19
71 69 76 74 75 79 82 79 80 84 88 90 92 93 93 92 90 87 86 85 85 85 85 83 81 78 75 71 68 64 61 58 54 51 46 43 39 35 31 28 24 19 15
75 81 80 81 75 75 75 86 89 93 95 96 94 92 90 89 89 90 90 89 87 84 82 79 76 74 70 66 62 58 55 51 48 44 39 35 32 30 28 23 19 17 14
89 87 78 74 82 88 91 94 98 99 97 95 93 92 91 91 90 88 87 86 85 81 79 75 71 67 65 63 60 56 53 50 45 41 36 32 28 25 22 20 17 15 11
83 84 85 86 89 96 101 104 102 100 98 97 95 94 94 92 90 89 86 83 80 78 76 75 73 69 65 61 57 54 51 48 43 40 35 32 26 22 19 15 13 10 7
91 89 100 101 105 107 108 107 105 102 100 99 97 95 93 92 91 88 87 87 86 84 80 76 71 66 60 53 48 43 38 34 30 25 24 26 25 22 17 12 9 5 0
100 109 109 111 113 114 113 110 108 105 102 101 99 99 98 95 92 92 92 90 84 77 71 64 57 50 43 37 33 31 29 26 23 21 20 17 16 15 13 10 5 359 354
119 122 124 123 123 119 115 111 109 108 107 105 103 103 100 99 98 97 94 83 76 70 64 56 50 45 39 34 30 26 23 20 18 17 14 13 11 10 9 6 0 357 356
135 135 132 128 124 121 119 118 118 114 110 110 111 107 105 104 102 95 86 79 73 67 60 53 46 40 34 28 23 20 18 15 13 12 12 12 9 6 4 2 360 358 358
145 143 139 136 132 130 128 125 123 120 119 115 109 108 109 104 90 83 81 77 70 62 53 44 37 30 24 20 16 14 13 12 11 10 9 7 6 3 1 360 359 358 358
154 154 151 145 143 140 135 132 129 123 120 118 117 113 102 90 85 79 75 70 60 49 38 30 25 20 16 12 9 8 8 7 7 6 5 2 0 359 358 356 356 357 358
169 170 164 158 156 150 145 141 137 135 131 126 117 104 91 82 79 74 61 53 39 30 23 18 13 10 7 5 5 3 3 2 2 0 359 358 357 356 356 354 355 354 356
186 182 176 173 168 162 158 155 153 153 150 142 127 106 74 49 42 37 27 10 5 6 7 5 2 0 359 359 359 358 358 357 356 354 353 351 352 352 351 351 353 352 353
186 195 191 186 182 178 173 171 170 170 171 168 164 162 354 5 6 353 339 338 343 348 350 350 352 352 351 352 353 353 353 352 350 349 348 348 347 347 346 348 351 351 352
193 197 204 199 197 193 192 191 190 187 190 198 210 235 259 280 304 320 321 324 330 334 336 339 341 343 345 346 347 349 348 347 346 345 345 346 347 346 346 348 351 350 350
Height
5699 5692 5685 5677 5670 5664 5659 5653 5646 5642 5638 5636 5635 5635 5635 5635 5636 5638 5640 5642 5645 5649 5651 5652 5653 5652 5649 5644 5640 5637 5636 5636 5636 5636 5636 5637 5639 5639 5640 5639 5638 5638 5638
5695 5688 5679 5670 5662 5656 5651 5648 5643 5639 5636 5634 5633 5633 5633 5633 5634 5636 5638 5640 5643 5646 5648 5650 5649 5647 5644 5642 5640 5639 5639 5639 5638 5638 5638 5637 5637 5636 5636 5636 5635 5635 5634
5692 5683 5672 5664 5657 5653 5650 5646 5642 5639 5636 5635 5634 5633 5633 5633 5634 5636 5637 5638 5641 5644 5646 5647 5646 5645 5644 5642 5642 5642 5641 5641 5641 5639 5638 5637 5637 5636 5636 5636 5635 5634 5632
5691 5681 5671 5663 5659 5655 5651 5648 5644 5641 5639 5637 5635 5635 5634 5635 5635 5636 5637 5638 5639 5642 5644 5645 5646 5645 5645 5645 5645 5644 5644 5643 5643 5642 5640 5639 5639 5638 5636 5635 5634 5633 5632
5691 5682 5675 5668 5664 5660 5657 5652 5649 5646 5644 5642 5640 5639 5638 5639 5639 5639 5640 5641 5642 5644 5645 5646 5647 5647 5647 5647 5647 5647 5647 5646 5645 5644 5643 5642 5640 5638 5636 5634 5633 5632 5631
5696 5687 5681 5676 5672 5668 5663 5660 5656 5654 5652 5649 5647 5645 5644 5644 5644 5644 5644 5645 5646 5647 5649 5650 5651 5651 5651 5651 5651 5650 5650 5649 5648 5647 5646 5644 5642 5640 5638 5636 5634 5633 5631
5701 5696 5690 5686 5681 5677 5673 5669 5666 5664 5661 5659 5657 5655 5653 5653 5653 5652 5653 5653 5653 5654 5655 5655 5655 5655 5655 5655 5655 5654 5653 5653 5652 5650 5649 5647 5645 5643 5641 5639 5637 5634 5632
5707 5703 5698 5694 5690 5686 5682 5678 5675 5673 5670 5668 5666 5664 5663 5662 5661 5661 5660 5660 5660 5660 5660 5660 5661 5660 5660 5660 5659 5659 5658 5657 5656 5655 5653 5651 5649 5647 5645 5642 5640 5637 5635
5712 5708 5704 5700 5697 5693 5690 5687 5684 5682 5679 5677 5675 5673 5671 5670 5669 5668 5668 5668 5667 5667 5667 5667 5666 5666 5666 5665 5665 5664 5663 5662 5661 5660 5658 5656 5654 5651 5649 5646 5643 5641 5638
5717 5713 5710 5706 5703 5701 5698 5695 5693 5690 5688 5686 5684 5681 5680 5678 5677 5676 5676 5675 5675 5674 5674 5674 5674 5674 5673 5673 5672 5671 5670 5669 5667 5665 5663 5661 5659 5656 5653 5651 5648 5645 5641
5722 5719 5716 5713 5711 5708 5705 5703 5701 5699 5697 5695 5692 5690 5689 5688 5686 5685 5684 5684 5683 5683 5682 5682 5682 5681 5680 5680 5679 5678 5676 5674 5673 5671 5669 5666 5664 5661 5658 5655 5652 5648 5644
5727 5725 5723 5719 5717 5715 5712 5711 5709 5706 5704 5702 5700 5699 5698 5696 5696 5694 5693 5692 5692 5691 5690 5690 5689 5689 5688 5687 5686 5684 5682 5680 5678 5676 5674 5671 5668 5665 5661 5658 5654 5650 5646
5732 5729 5727 5725 5723 5721 5720 5717 5715 5714 5712 5710 5709 5708 5707 5706 5704 5703 5702 5701 5701 5700 5699 5699 5698 5697 5696 5694 5693 5691 5688 5686 5683 5681 5678 5674 5671 5668 5664 5661 5656 5651 5647
5736 5734 5732 5730 5729 5727 5726 5724 5722 5721 5720 5719 5717 5716 5715 5714 5714 5713 5711 5710 5710 5709 5708 5707 5706 5704 5702 5700 5699 5697 5694 5691 5688 5685 5681 5677 5673 5669 5665 5660 5656 5651 5646
5740 5738 5737 5735 5733 5732 5731 5731 5730 5729 5728 5727 5726 5725 5724 5723 5722 5721 5721 5719 5717 5717 5715 5713 5712 5711 5709 5707 5704 5702 5699 5696 5692 5688 5684 5680 5675 5670 5666 5661 5655 5650 5645
5744 5742 5740 5739 5738 5738 5738 5737 5736 5736 5735 5735 5734 5733 5732 5731 5730 5729 5728 5726 5725 5724 5723 5720 5719 5717 5715 5713 5710 5707 5704 5700 5696 5692 5687 5682 5677 5672 5666 5661 5656 5651 5645
5747 5746 5744 5744 5743 5744 5744 5743 5743 5743 5742 5741 5741 5740 5739 5739 5738 5736 5735 5734 5733 5731 5729 5727 5726 5724 5722 5718 5715 5711 5707 5703 5699 5694 5689 5684 5679 5673 5668 5662 5657 5651 5644
5750 5749 5749 5748 5749 5749 5749 5749 5749 5748 5748 5748 5747 5747 5746 5745 5744 5743 5742 5741 5739 5737 5735 5733 5731 5729 5726 5722 5719 5715 5711 5706 5701 5696 5691 5686 5680 5675 5668 5662 5656 5650 5643
5753 5753 5753 5753 5753 5754 5754 5754 5754 5754 5754 5753 5753 5753 5751 5751 5750 5750 5749 5747 5745 5742 5740 5738 5736 5733 5729 5726 5722 5718 5713 5708 5703 5698 5692 5687 5681 5675 5668 5662 5655 5647 5639
5756 5757 5757 5757 5757 5758 5758 5759 5759 5759 5758 5758 5758 5758 5757 5757 5757 5755 5753 5751 5749 5747 5745 5743 5740 5737 5733 5729 5725 5720 5715 5710 5704 5699 5693 5687 5681 5675 5668 5661 5653 5645 5637
5759 5759 5759 5760 5761 5761 5762 5763 5763 5763 5763 5763 5763 5762 5763 5762 5761 5759 5757 5755 5753 5751 5749 5746 5743 5739 5735 5731 5727 5722 5716 5711 5705 5699 5693 5687 5681 5674 5668 5660 5652 5644 5636
5761 5761 5762 5762 5763 5764 5765 5766 5767 5767 5767 5767 5767 5767 5766 5765 5763 5762 5760 5758 5756 5754 5751 5748 5745 5741 5737 5733 5727 5722 5716 5711 5705 5699 5693 5686 5680 5673 5666 5659 5651 5642 5634
5762 5763 5764 5764 5765 5766 5767 5768 5769 5770 5770 5770 5769 5769 5768 5767 5765 5764 5762 5760 5758 5756 5753 5749 5746 5742 5737 5733 5728 5722 5717 5711 5705 5699 5692 5686 5679 5672 5665 5657 5649 5640 5632
5763 5763 5764 5765 5766 5767 5768 5769 5770 5771 5771 5771 5771 5770 5769 5768 5766 5765 5763 5761 5759 5756 5753 5750 5746 5742 5737 5733 5727 5722 5716 5710 5704 5698 5691 5684 5677 5670 5662 5654 5646 5637 5630
5762 5764 5765 5766 5767 5768 5768 5769 5770 5771 5771 5771 5771 5770 5769 5768 5766 5765 5763 5761 5758 5756 5753 5749 5745 5741 5737 5732 5726 5721 5715 5709 5702 5696 5689 5682 5675 5667 5659 5651 5643 5635 5627
5760 5762 5764 5765 5766 5767 5768 5769 5769 5770 5770 5771 5770 5770 5769 5767 5766 5764 5762 5760 5757 5755 5751 5748 5744 5740 5735 5730 5725 5719 5713 5706 5700 5693 5686 5679 5671 5663 5655 5647 5640 5632 5625